Time,TemperatureF,DewpointF,PressureIn,WindDirection,WindDirectionDegrees,WindSpeedMPH,WindSpeedGustMPH,Humidity,HourlyPrecipIn,Conditions,Clouds,dailyrainin,SoftwareType,DateUTC
2013-05-06 00:00:00,47.3,46.2,28.96,NW,315,1.2,1.2,96,0.00,RA,,0.00,WeatherDisplay:10.37,2013-05-06 05:00:00,
2013-05-06 00:05:00,47.3,46.2,28.96,NW,315,1.2,1.2,96,0.00,RA,,0.00,WeatherDisplay:10.37,2013-05-06 05:05:00,
2013-05-06 00:10:00,47.1,46.0,28.96,NW,315,1.2,1.2,96,0.00,,,0.00,WeatherDisplay:10.37,2013-05-06 05:10:00,
2013-05-06 00:16:00,47.1,46.0,28.96,NW,315,1.2,1.2,96,0.00,,,0.00,WeatherDisplay:10.37,2013-05-06 05:16:00,
2013-05-06 00:21:00,46.9,46.1,28.96,NW,315,2.3,2.3,97,0.00,,,0.00,WeatherDisplay:10.37,2013-05-06 05:21:00,
2013-05-06 00:26:00,46.9,46.1,28.96,NW,315,2.3,2.3,97,0.00,,,0.00,WeatherDisplay:10.37,2013-05-06 05:26:00,
2013-05-06 00:31:00,46.9,46.1,28.96,NW,315,2.3,2.3,97,0.00,,,0.00,WeatherDisplay:10.37,2013-05-06 05:31:00,
2013-05-06 00:36:00,46.8,46.0,28.96,NW,315,2.3,2.3,97,0.00,,,0.00,WeatherDisplay:10.37,2013-05-06 05:36:00,
2013-05-06 00:42:00,46.8,46.0,28.96,NW,315,1.2,1.6,97,0.00,,,0.00,WeatherDisplay:10.37,2013-05-06 05:42:00,
2013-05-06 00:47:00,46.8,46.0,28.96,NW,315,2.2,2.2,97,0.00,,,0.00,WeatherDisplay:10.37,2013-05-06 05:47:00,
2013-05-06 00:52:00,46.6,45.8,28.96,NW,315,1.2,0.0,97,0.00,,,0.00,WeatherDisplay:10.37,2013-05-06 05:52:00,
2013-05-06 00:57:00,46.6,45.8,28.96,NW,315,0.0,0.0,97,0.00,,,0.00,WeatherDisplay:10.37,2013-05-06 05:57:00,
2013-05-06 01:03:00,46.6,45.8,28.96,West,270,1.2,1.2,97,0.00,,,0.00,WeatherDisplay:10.37,2013-05-06 06:03:00,
2013-05-06 01:08:00,46.4,45.6,28.96,West,270,1.2,0.0,97,0.00,,,0.00,WeatherDisplay:10.37,2013-05-06 06:08:00,
2013-05-06 01:13:00,46.2,45.4,28.95,West,270,0.0,0.0,97,0.00,,,0.00,WeatherDisplay:10.37,2013-05-06 06:13:00,
2013-05-06 01:18:00,46.0,45.2,28.96,West,270,1.2,0.0,97,0.00,,,0.00,WeatherDisplay:10.37,2013-05-06 06:18:00,
2013-05-06 01:23:00,45.9,45.1,28.96,NW,315,1.2,0.0,97,0.00,,,0.00,WeatherDisplay:10.37,2013-05-06 06:23:00,
2013-05-06 01:28:00,45.7,44.9,28.95,NW,315,0.0,0.0,97,0.00,,,0.00,WeatherDisplay:10.37,2013-05-06 06:28:00,
2013-05-06 01:34:00,45.7,44.9,28.95,NW,315,0.0,0.0,97,0.00,,,0.00,WeatherDisplay:10.37,2013-05-06 06:34:00,
2013-05-06 01:39:00,45.5,44.7,28.95,NW,315,1.2,1.2,97,0.00,,,0.00,WeatherDisplay:10.37,2013-05-06 06:39:00,
2013-05-06 01:44:00,45.5,45.0,28.95,NW,315,2.3,2.3,98,0.00,,,0.00,WeatherDisplay:10.37,2013-05-06 06:44:00,
2013-05-06 01:49:00,45.5,45.0,28.95,NW,315,1.2,0.0,98,0.00,,,0.00,WeatherDisplay:10.37,2013-05-06 06:49:00,
2013-05-06 01:54:00,45.3,44.8,28.95,North,0,1.2,0.0,98,0.00,,,0.00,WeatherDisplay:10.37,2013-05-06 06:54:00,
2013-05-06 02:00:00,45.0,44.4,28.95,NE,45,2.3,0.0,98,0.00,,,0.00,WeatherDisplay:10.37,2013-05-06 07:00:00,
2013-05-06 02:05:00,45.0,44.4,28.95,NE,45,1.2,0.0,98,0.00,,,0.00,WeatherDisplay:10.37,2013-05-06 07:05:00,
2013-05-06 02:10:00,45.1,44.6,28.95,NE,45,1.2,1.2,98,0.00,,,0.00,WeatherDisplay:10.37,2013-05-06 07:10:00,
2013-05-06 02:15:00,45.1,44.6,28.95,NNE,19,0.0,3.0,98,0.00,,,0.00,WeatherDisplay:10.37,2013-05-06 07:15:00,
2013-05-06 02:20:00,45.3,44.8,28.95,NW,315,2.3,0.0,98,0.00,,,0.00,WeatherDisplay:10.37,2013-05-06 07:20:00,
2013-05-06 02:25:00,45.5,45.0,28.95,North,0,2.3,0.0,98,0.00,,,0.00,WeatherDisplay:10.37,2013-05-06 07:25:00,
2013-05-06 02:31:00,45.5,45.2,28.95,North,0,2.3,0.0,99,0.00,,,0.00,WeatherDisplay:10.37,2013-05-06 07:31:00,
2013-05-06 02:36:00,45.7,45.4,28.95,North,0,1.2,0.0,99,0.00,,,0.00,WeatherDisplay:10.37,2013-05-06 07:36:00,
2013-05-06 02:41:00,45.7,45.4,28.94,NW,315,1.2,0.0,99,0.00,,,0.00,WeatherDisplay:10.37,2013-05-06 07:41:00,
2013-05-06 02:46:00,45.7,45.4,28.94,NW,315,1.2,0.0,99,0.00,,,0.00,WeatherDisplay:10.37,2013-05-06 07:46:00,
2013-05-06 02:51:00,45.9,45.6,28.94,NW,315,1.2,0.0,99,0.00,,,0.00,WeatherDisplay:10.37,2013-05-06 07:51:00,
2013-05-06 02:56:00,45.9,45.6,28.94,SW,225,1.2,0.0,99,0.00,,,0.00,WeatherDisplay:10.37,2013-05-06 07:56:00,
2013-05-06 03:01:00,45.9,45.6,28.95,NW,315,1.2,0.0,99,0.00,,,0.00,WeatherDisplay:10.37,2013-05-06 08:01:00,
2013-05-06 03:06:00,45.9,45.6,28.94,NW,315,1.2,0.0,99,0.00,,,0.00,WeatherDisplay:10.37,2013-05-06 08:06:00,
2013-05-06 03:11:00,45.9,45.6,28.94,North,0,2.3,0.0,99,0.00,,,0.00,WeatherDisplay:10.37,2013-05-06 08:11:00,
2013-05-06 03:17:00,45.9,45.6,28.94,NW,315,2.3,2.3,99,0.00,,,0.00,WeatherDisplay:10.37,2013-05-06 08:17:00,
2013-05-06 03:22:00,45.9,45.6,28.94,West,270,2.3,2.3,99,0.00,,,0.00,WeatherDisplay:10.37,2013-05-06 08:22:00,
2013-05-06 03:27:00,46.0,45.8,28.94,NW,315,3.5,3.5,99,0.00,,,0.00,WeatherDisplay:10.37,2013-05-06 08:27:00,
2013-05-06 03:32:00,46.0,45.8,28.94,NW,315,1.2,0.0,99,0.00,,,0.00,WeatherDisplay:10.37,2013-05-06 08:32:00,
2013-05-06 03:37:00,46.0,45.8,28.94,NW,315,2.3,2.3,99,0.00,,,0.00,WeatherDisplay:10.37,2013-05-06 08:37:00,
2013-05-06 03:42:00,46.2,46.0,28.94,West,270,2.3,2.3,99,0.00,,,0.00,WeatherDisplay:10.37,2013-05-06 08:42:00,
2013-05-06 03:47:00,46.2,46.0,28.94,NW,315,2.3,2.3,99,0.00,,,0.00,WeatherDisplay:10.37,2013-05-06 08:47:00,
2013-05-06 03:53:00,46.2,46.0,28.95,North,0,2.3,2.3,99,0.00,,,0.00,WeatherDisplay:10.37,2013-05-06 08:53:00,
2013-05-06 03:58:00,46.0,45.8,28.95,NW,315,3.5,3.5,99,0.00,,,0.00,WeatherDisplay:10.37,2013-05-06 08:58:00,
2013-05-06 04:03:00,46.0,45.8,28.94,NW,315,2.3,2.3,99,0.00,,,0.00,WeatherDisplay:10.37,2013-05-06 09:03:00,
2013-05-06 04:08:00,46.0,45.8,28.94,West,270,2.3,2.3,99,0.00,,,0.00,WeatherDisplay:10.37,2013-05-06 09:08:00,
2013-05-06 04:13:00,46.0,45.8,28.94,NW,315,1.2,1.2,99,0.00,,,0.00,WeatherDisplay:10.37,2013-05-06 09:13:00,
2013-05-06 04:19:00,46.0,45.8,28.95,NW,315,2.3,2.3,99,0.00,,,0.00,WeatherDisplay:10.37,2013-05-06 09:19:00,
2013-05-06 04:24:00,46.0,45.8,28.94,NW,315,3.5,3.5,99,0.00,,,0.00,WeatherDisplay:10.37,2013-05-06 09:24:00,
2013-05-06 04:29:00,46.0,45.8,28.94,NW,315,2.3,2.3,99,0.00,,,0.00,WeatherDisplay:10.37,2013-05-06 09:29:00,
2013-05-06 04:34:00,46.0,45.8,28.95,NW,315,3.5,3.5,99,0.00,,,0.00,WeatherDisplay:10.37,2013-05-06 09:34:00,
2013-05-06 04:39:00,46.0,45.8,28.94,NW,315,2.3,2.3,99,0.00,,,0.00,WeatherDisplay:10.37,2013-05-06 09:39:00,
2013-05-06 04:44:00,46.0,45.8,28.94,West,270,2.3,2.3,99,0.00,,,0.00,WeatherDisplay:10.37,2013-05-06 09:44:00,
2013-05-06 04:49:00,46.0,45.8,28.95,NW,315,2.3,2.3,99,0.00,,,0.00,WeatherDisplay:10.37,2013-05-06 09:49:00,
2013-05-06 04:54:00,46.2,46.0,28.95,NW,315,3.5,3.5,99,0.00,,,0.00,WeatherDisplay:10.37,2013-05-06 09:54:00,
2013-05-06 05:00:00,46.0,45.8,28.95,NW,315,2.3,2.3,99,0.00,,,0.00,WeatherDisplay:10.37,2013-05-06 10:00:00,
2013-05-06 05:05:00,46.0,45.8,28.94,West,270,1.2,1.2,99,0.00,,,0.00,WeatherDisplay:10.37,2013-05-06 10:05:00,
2013-05-06 05:10:00,46.0,45.8,28.95,NW,315,2.3,2.3,99,0.00,,,0.00,WeatherDisplay:10.37,2013-05-06 10:10:00,
2013-05-06 05:15:00,46.0,45.8,28.95,NW,315,2.3,2.3,99,0.00,,,0.00,WeatherDisplay:10.37,2013-05-06 10:15:00,
2013-05-06 05:20:00,46.0,45.8,28.95,NW,315,3.5,3.5,99,0.00,,,0.00,WeatherDisplay:10.37,2013-05-06 10:20:00,
2013-05-06 05:25:00,46.0,45.8,28.95,NW,315,2.3,2.3,99,0.00,,,0.00,WeatherDisplay:10.37,2013-05-06 10:25:00,
2013-05-06 05:30:00,46.0,45.8,28.95,NW,315,3.5,3.5,99,0.00,,,0.00,WeatherDisplay:10.37,2013-05-06 10:30:00,
2013-05-06 05:36:00,46.0,45.8,28.95,NW,315,3.5,3.5,99,0.00,,,0.00,WeatherDisplay:10.37,2013-05-06 10:36:00,
2013-05-06 05:41:00,46.0,45.8,28.95,NW,315,2.3,2.3,99,0.00,,,0.00,WeatherDisplay:10.37,2013-05-06 10:41:00,
2013-05-06 05:46:00,46.0,45.8,28.95,NW,315,2.3,2.3,99,0.00,,,0.00,WeatherDisplay:10.37,2013-05-06 10:46:00,
2013-05-06 05:51:00,45.9,45.6,28.95,NW,315,3.5,3.5,99,0.00,,,0.00,WeatherDisplay:10.37,2013-05-06 10:51:00,
2013-05-06 05:56:00,45.9,45.6,28.95,NW,315,2.3,2.3,99,0.00,,,0.00,WeatherDisplay:10.37,2013-05-06 10:56:00,
2013-05-06 06:02:00,45.9,45.6,28.96,NW,315,3.5,3.5,99,0.00,,,0.00,WeatherDisplay:10.37,2013-05-06 11:02:00,
2013-05-06 06:07:00,45.9,45.6,28.96,NW,315,3.5,3.5,99,0.00,,,0.00,WeatherDisplay:10.37,2013-05-06 11:07:00,
2013-05-06 06:12:00,45.9,45.6,28.96,NW,315,3.5,3.5,99,0.00,,,0.00,WeatherDisplay:10.37,2013-05-06 11:12:00,
2013-05-06 06:18:00,45.9,45.6,28.95,NW,315,3.5,3.5,99,0.00,,,0.00,WeatherDisplay:10.37,2013-05-06 11:18:00,
2013-05-06 06:23:00,45.9,45.6,28.96,NW,315,3.5,3.5,99,0.00,,,0.00,WeatherDisplay:10.37,2013-05-06 11:23:00,
2013-05-06 06:28:00,45.9,45.6,28.96,NW,315,3.5,3.5,99,0.00,,,0.00,WeatherDisplay:10.37,2013-05-06 11:28:00,
2013-05-06 06:34:00,45.9,45.6,28.96,NW,315,2.3,2.3,99,0.00,,,0.00,WeatherDisplay:10.37,2013-05-06 11:34:00,
2013-05-06 06:39:00,45.9,45.6,28.96,NW,315,3.5,3.5,99,0.00,,,0.00,WeatherDisplay:10.37,2013-05-06 11:39:00,
2013-05-06 06:44:00,45.9,45.6,28.96,NW,315,3.5,3.5,99,0.00,,,0.00,WeatherDisplay:10.37,2013-05-06 11:44:00,
2013-05-06 06:49:00,45.9,45.6,28.96,NW,315,3.5,3.5,99,0.00,,,0.00,WeatherDisplay:10.37,2013-05-06 11:49:00,
2013-05-06 06:54:00,45.9,45.6,28.96,WNW,292,2.3,2.3,99,0.00,,,0.00,WeatherDisplay:10.37,2013-05-06 11:54:00,
2013-05-06 06:59:00,46.0,45.8,28.96,NW,315,3.5,3.5,99,0.00,,,0.00,WeatherDisplay:10.37,2013-05-06 11:59:00,
2013-05-06 07:04:00,46.0,45.8,28.97,NW,315,3.5,3.5,99,0.00,,,0.00,WeatherDisplay:10.37,2013-05-06 12:04:00,
2013-05-06 07:09:00,45.9,45.3,28.97,NW,315,3.5,3.5,98,0.00,,,0.00,WeatherDisplay:10.37,2013-05-06 12:09:00,
2013-05-06 07:15:00,45.9,45.3,28.97,NW,315,2.0,4.0,98,0.00,,,0.00,WeatherDisplay:10.37,2013-05-06 12:15:00,
2013-05-06 07:20:00,45.9,45.3,28.98,North,0,3.5,3.5,98,0.00,,,0.00,WeatherDisplay:10.37,2013-05-06 12:20:00,
2013-05-06 07:25:00,45.9,45.3,28.97,NW,315,3.5,3.5,98,0.00,,,0.00,WeatherDisplay:10.37,2013-05-06 12:25:00,
2013-05-06 07:30:00,46.0,45.5,28.97,North,0,2.3,2.3,98,0.00,,,0.00,WeatherDisplay:10.37,2013-05-06 12:30:00,
2013-05-06 07:35:00,46.2,45.7,28.98,NW,315,2.3,2.3,98,0.00,,,0.00,WeatherDisplay:10.37,2013-05-06 12:35:00,
2013-05-06 07:40:00,46.2,45.7,28.97,NW,315,3.5,3.5,98,0.00,,,0.00,WeatherDisplay:10.37,2013-05-06 12:40:00,
2013-05-06 07:46:00,46.4,45.9,28.98,NW,315,3.5,3.5,98,0.00,,,0.00,WeatherDisplay:10.37,2013-05-06 12:46:00,
2013-05-06 07:51:00,46.2,45.4,28.98,NW,315,3.5,3.5,97,0.00,,,0.00,WeatherDisplay:10.37,2013-05-06 12:51:00,
2013-05-06 07:56:00,46.2,45.4,28.98,NW,315,3.5,3.5,97,0.00,,,0.00,WeatherDisplay:10.37,2013-05-06 12:56:00,
2013-05-06 08:01:00,46.4,45.6,28.98,NW,315,3.5,3.5,97,0.00,,,0.00,WeatherDisplay:10.37,2013-05-06 13:01:00,
2013-05-06 08:07:00,46.4,45.6,28.98,NW,315,3.5,3.5,97,0.00,,,0.00,WeatherDisplay:10.37,2013-05-06 13:07:00,
2013-05-06 08:12:00,46.6,45.8,28.98,NW,315,3.5,3.5,97,0.00,,,0.00,WeatherDisplay:10.37,2013-05-06 13:12:00,
2013-05-06 08:17:00,46.6,45.5,28.98,NW,315,3.5,3.5,96,0.00,,,0.00,WeatherDisplay:10.37,2013-05-06 13:17:00,
2013-05-06 08:22:00,46.6,45.5,28.98,NW,315,3.5,3.5,96,0.00,,,0.00,WeatherDisplay:10.37,2013-05-06 13:22:00,
2013-05-06 08:27:00,46.6,45.5,28.98,NW,315,4.6,4.6,96,0.00,,,0.00,WeatherDisplay:10.37,2013-05-06 13:27:00,
2013-05-06 08:32:00,46.6,45.5,28.98,NW,315,3.5,3.5,96,0.00,,,0.00,WeatherDisplay:10.37,2013-05-06 13:32:00,
2013-05-06 08:37:00,46.6,45.2,28.98,North,0,3.5,3.5,95,0.00,,,0.00,WeatherDisplay:10.37,2013-05-06 13:37:00,
2013-05-06 08:42:00,46.6,45.2,28.98,NNW,338,3.5,3.5,95,0.00,,,0.00,WeatherDisplay:10.37,2013-05-06 13:42:00,
2013-05-06 08:47:00,46.6,45.2,28.98,North,0,3.5,3.5,95,0.00,,,0.00,WeatherDisplay:10.37,2013-05-06 13:47:00,
2013-05-06 08:52:00,46.8,45.4,28.98,North,0,2.3,2.3,95,0.00,,,0.00,WeatherDisplay:10.37,2013-05-06 13:52:00,
2013-05-06 08:58:00,46.9,45.6,28.98,North,0,3.5,3.5,95,0.00,,,0.00,WeatherDisplay:10.37,2013-05-06 13:58:00,
2013-05-06 09:03:00,46.9,45.3,28.98,NW,315,2.3,2.3,94,0.00,,,0.00,WeatherDisplay:10.37,2013-05-06 14:03:00,
2013-05-06 09:08:00,46.9,45.3,28.99,NW,315,3.5,3.5,94,0.00,,,0.00,WeatherDisplay:10.37,2013-05-06 14:08:00,
2013-05-06 09:13:00,46.9,45.3,28.98,NW,315,3.5,3.5,94,0.00,,,0.00,WeatherDisplay:10.37,2013-05-06 14:13:00,
2013-05-06 09:18:00,47.1,45.5,28.98,NW,315,1.2,1.2,94,0.00,,,0.00,WeatherDisplay:10.37,2013-05-06 14:18:00,
2013-05-06 09:23:00,47.1,45.5,28.98,North,0,3.5,3.5,94,0.00,,,0.00,WeatherDisplay:10.37,2013-05-06 14:23:00,
2013-05-06 09:28:00,47.3,45.7,28.98,NW,315,4.6,4.6,94,0.00,,,0.00,WeatherDisplay:10.37,2013-05-06 14:28:00,
2013-05-06 09:33:00,47.3,45.4,28.99,NW,315,3.8,3.8,93,0.00,,,0.00,WeatherDisplay:10.37,2013-05-06 14:33:00,
2013-05-06 09:38:00,47.3,45.4,28.98,NW,315,3.5,3.5,93,0.00,,,0.00,WeatherDisplay:10.37,2013-05-06 14:38:00,
2013-05-06 09:43:00,47.3,45.4,28.99,North,0,3.5,0.0,93,0.00,,,0.00,WeatherDisplay:10.37,2013-05-06 14:43:00,
2013-05-06 09:48:00,47.8,45.9,28.98,North,0,4.6,4.6,93,0.00,,,0.00,WeatherDisplay:10.37,2013-05-06 14:48:00,
2013-05-06 09:54:00,48.0,45.8,28.98,NW,315,3.5,3.5,92,0.00,,,0.00,WeatherDisplay:10.37,2013-05-06 14:54:00,
2013-05-06 09:59:00,48.0,45.5,28.99,NW,315,3.5,3.5,91,0.00,,,0.00,WeatherDisplay:10.37,2013-05-06 14:59:00,
2013-05-06 10:04:00,48.0,45.5,28.99,North,0,3.5,3.5,91,0.00,,,0.00,WeatherDisplay:10.37,2013-05-06 15:04:00,
2013-05-06 10:09:00,47.8,45.3,28.98,NW,315,6.9,6.9,91,0.00,,,0.00,WeatherDisplay:10.37,2013-05-06 15:09:00,
2013-05-06 10:14:00,48.0,45.5,28.99,North,0,3.5,3.5,91,0.00,,,0.00,WeatherDisplay:10.37,2013-05-06 15:14:00,
2013-05-06 10:19:00,48.2,45.7,28.99,NW,315,3.5,3.5,91,0.00,,,0.00,WeatherDisplay:10.37,2013-05-06 15:19:00,
2013-05-06 10:25:00,48.6,46.1,28.98,NE,45,2.3,2.3,91,0.00,,,0.00,WeatherDisplay:10.37,2013-05-06 15:25:00,
2013-05-06 10:30:00,48.7,45.9,28.98,North,0,3.5,3.5,90,0.00,,,0.00,WeatherDisplay:10.37,2013-05-06 15:30:00,
2013-05-06 10:35:00,48.7,45.6,28.98,NE,45,3.5,3.5,89,0.00,,,0.00,WeatherDisplay:10.37,2013-05-06 15:35:00,
2013-05-06 10:40:00,48.9,45.8,28.98,NE,45,3.5,3.8,89,0.00,,,0.00,WeatherDisplay:10.37,2013-05-06 15:40:00,
2013-05-06 10:45:00,48.7,45.6,28.98,NW,315,4.6,4.6,89,0.00,,,0.00,WeatherDisplay:10.37,2013-05-06 15:45:00,
2013-05-06 10:51:00,48.9,45.8,28.98,NW,315,3.5,3.5,89,0.00,,,0.00,WeatherDisplay:10.37,2013-05-06 15:51:00,
2013-05-06 10:56:00,49.1,46.0,28.99,NE,45,3.5,3.5,89,0.00,,,0.00,WeatherDisplay:10.37,2013-05-06 15:56:00,
2013-05-06 11:01:00,49.5,46.4,28.98,North,0,5.8,5.8,89,0.00,,,0.00,WeatherDisplay:10.37,2013-05-06 16:01:00,
2013-05-06 11:06:00,49.6,46.2,28.98,North,0,5.8,5.8,88,0.00,,,0.00,WeatherDisplay:10.37,2013-05-06 16:06:00,
2013-05-06 11:11:00,49.6,46.2,28.98,NW,315,4.6,4.6,88,0.00,,,0.00,WeatherDisplay:10.37,2013-05-06 16:11:00,
2013-05-06 11:17:00,49.6,45.9,28.98,NE,45,4.6,4.6,87,0.00,,,0.00,WeatherDisplay:10.37,2013-05-06 16:17:00,
2013-05-06 11:22:00,49.6,46.2,28.98,North,0,5.8,5.8,88,0.00,,,0.00,WeatherDisplay:10.37,2013-05-06 16:22:00,
2013-05-06 11:27:00,49.8,46.1,28.98,NE,45,3.5,0.0,87,0.00,,,0.00,WeatherDisplay:10.37,2013-05-06 16:27:00,
2013-05-06 11:32:00,50.4,46.6,28.98,NE,45,5.8,5.8,87,0.00,,,0.00,WeatherDisplay:10.37,2013-05-06 16:32:00,
2013-05-06 11:37:00,50.4,46.6,28.98,NE,45,5.8,5.8,87,0.00,,,0.00,WeatherDisplay:10.37,2013-05-06 16:37:00,
2013-05-06 11:43:00,50.5,46.2,28.98,NW,315,5.8,5.8,85,0.00,,,0.00,WeatherDisplay:10.37,2013-05-06 16:43:00,
2013-05-06 11:48:00,50.4,46.3,28.98,NW,315,3.5,3.5,86,0.00,,,0.00,WeatherDisplay:10.37,2013-05-06 16:48:00,
2013-05-06 11:53:00,50.7,46.7,28.98,NW,315,4.6,4.6,86,0.00,,,0.00,WeatherDisplay:10.37,2013-05-06 16:53:00,
2013-05-06 11:58:00,51.1,46.4,28.98,West,270,3.5,3.5,84,0.00,,,0.00,WeatherDisplay:10.37,2013-05-06 16:58:00,
2013-05-06 12:03:00,51.6,47.3,28.98,North,0,3.5,3.5,85,0.00,,,0.00,WeatherDisplay:10.37,2013-05-06 17:03:00,
2013-05-06 12:09:00,52.0,47.0,28.98,North,0,3.5,3.5,83,0.00,,,0.00,WeatherDisplay:10.37,2013-05-06 17:09:00,
2013-05-06 12:14:00,52.5,47.2,28.98,NE,45,4.6,4.6,82,0.00,,,0.00,WeatherDisplay:10.37,2013-05-06 17:14:00,
2013-05-06 12:19:00,52.5,46.9,28.98,NE,45,3.5,3.5,81,0.00,,,0.00,WeatherDisplay:10.37,2013-05-06 17:19:00,
2013-05-06 12:24:00,52.2,46.5,28.98,NW,315,5.8,5.8,81,0.00,,,0.00,WeatherDisplay:10.37,2013-05-06 17:24:00,
2013-05-06 12:29:00,52.2,46.8,28.98,South,180,2.3,2.3,82,0.00,,,0.00,WeatherDisplay:10.37,2013-05-06 17:29:00,
2013-05-06 12:35:00,52.5,47.2,28.98,North,0,3.5,3.5,82,0.00,,,0.00,WeatherDisplay:10.37,2013-05-06 17:35:00,
2013-05-06 12:40:00,52.5,47.2,28.98,North,0,3.5,3.5,82,0.00,,,0.00,WeatherDisplay:10.37,2013-05-06 17:40:00,
2013-05-06 12:45:00,53.8,47.8,28.98,North,0,3.5,3.5,80,0.00,,,0.00,WeatherDisplay:10.37,2013-05-06 17:45:00,
2013-05-06 12:50:00,54.5,48.1,28.97,NE,45,3.8,3.8,79,0.00,,,0.00,WeatherDisplay:10.37,2013-05-06 17:50:00,
2013-05-06 12:55:00,54.0,47.6,28.98,NE,45,3.5,3.5,79,0.00,,,0.00,WeatherDisplay:10.37,2013-05-06 17:55:00,
2013-05-06 13:00:00,53.4,47.1,28.97,North,0,4.6,4.6,79,0.00,,,0.00,WeatherDisplay:10.37,2013-05-06 18:00:00,
2013-05-06 13:05:00,53.2,46.9,28.97,NNW,338,4.6,4.6,79,0.00,,,0.00,WeatherDisplay:10.37,2013-05-06 18:05:00,
2013-05-06 13:11:00,53.8,48.1,28.97,NW,315,3.5,3.5,81,0.00,,,0.00,WeatherDisplay:10.37,2013-05-06 18:11:00,
2013-05-06 13:16:00,54.1,47.4,28.97,NE,45,5.8,5.8,78,0.00,,,0.00,WeatherDisplay:10.37,2013-05-06 18:16:00,
2013-05-06 13:21:00,54.1,47.4,28.97,NE,45,5.8,5.8,78,0.00,,,0.00,WeatherDisplay:10.37,2013-05-06 18:21:00,
2013-05-06 13:26:00,54.9,48.5,28.97,West,270,3.5,3.5,79,0.00,,,0.00,WeatherDisplay:10.37,2013-05-06 18:26:00,
2013-05-06 13:32:00,55.8,49.0,28.96,NE,45,3.5,0.0,78,0.00,,,0.00,WeatherDisplay:10.37,2013-05-06 18:32:00,
2013-05-06 13:37:00,56.8,49.0,28.97,East,90,3.5,3.5,75,0.00,,,0.00,WeatherDisplay:10.37,2013-05-06 18:37:00,
2013-05-06 13:42:00,57.0,49.2,28.97,West,270,2.3,2.3,75,0.00,,,0.00,WeatherDisplay:10.37,2013-05-06 18:42:00,
2013-05-06 13:47:00,56.5,47.9,28.96,NW,315,5.8,5.8,73,0.00,,,0.00,WeatherDisplay:10.37,2013-05-06 18:47:00,
2013-05-06 13:52:00,57.0,48.8,28.96,North,0,5.8,5.8,74,0.00,,,0.00,WeatherDisplay:10.37,2013-05-06 18:52:00,
2013-05-06 13:57:00,57.6,49.7,28.96,NW,315,5.8,5.8,75,0.00,,,0.00,WeatherDisplay:10.37,2013-05-06 18:57:00,
2013-05-06 14:02:00,57.7,49.5,28.96,North,0,5.8,5.8,74,0.00,,,0.00,WeatherDisplay:10.37,2013-05-06 19:02:00,
2013-05-06 14:08:00,57.2,48.6,28.96,NW,315,6.9,6.9,73,0.00,,,0.00,WeatherDisplay:10.37,2013-05-06 19:08:00,
2013-05-06 14:13:00,57.9,49.3,28.96,NE,45,4.6,4.6,73,0.00,,,0.00,WeatherDisplay:10.37,2013-05-06 19:13:00,
2013-05-06 14:18:00,59.5,49.4,28.96,NNE,22,3.5,3.5,69,0.00,,,0.00,WeatherDisplay:10.37,2013-05-06 19:18:00,
2013-05-06 14:23:00,59.2,49.0,28.95,East,90,6.9,6.9,69,0.00,,,0.00,WeatherDisplay:10.37,2013-05-06 19:23:00,
2013-05-06 14:28:00,58.1,49.1,28.95,NE,45,5.8,5.8,72,0.00,,,0.00,WeatherDisplay:10.37,2013-05-06 19:28:00,
2013-05-06 14:34:00,58.3,49.3,28.95,NW,315,3.5,3.5,72,0.00,,,0.00,WeatherDisplay:10.37,2013-05-06 19:34:00,
2013-05-06 14:39:00,60.1,50.3,28.94,North,0,5.8,5.8,70,0.00,,,0.00,WeatherDisplay:10.37,2013-05-06 19:39:00,
2013-05-06 14:44:00,60.4,49.8,28.94,SW,225,5.8,5.8,68,0.00,,,0.00,WeatherDisplay:10.37,2013-05-06 19:44:00,
2013-05-06 14:49:00,61.0,50.3,28.94,North,0,3.5,3.5,68,0.00,,,0.00,WeatherDisplay:10.37,2013-05-06 19:49:00,
2013-05-06 14:54:00,61.2,50.1,28.94,West,270,5.8,5.8,67,0.00,,,0.00,WeatherDisplay:10.37,2013-05-06 19:54:00,
2013-05-06 14:59:00,61.2,50.5,28.94,NW,315,3.5,3.5,68,0.00,,,0.00,WeatherDisplay:10.37,2013-05-06 19:59:00,
2013-05-06 15:05:00,61.2,50.1,28.94,North,0,4.6,4.6,67,0.00,,,0.00,WeatherDisplay:10.37,2013-05-06 20:05:00,
2013-05-06 15:10:00,63.1,51.6,28.93,NE,45,4.6,4.6,66,0.00,,,0.00,WeatherDisplay:10.37,2013-05-06 20:10:00,
2013-05-06 15:15:00,63.7,50.4,28.93,North,0,8.1,8.1,62,0.00,,,0.00,WeatherDisplay:10.37,2013-05-06 20:15:00,
2013-05-06 15:20:00,63.7,50.8,28.93,North,0,4.6,4.6,63,0.00,,,0.00,WeatherDisplay:10.37,2013-05-06 20:20:00,
2013-05-06 15:25:00,64.0,50.3,28.93,NE,45,10.4,10.4,61,0.00,,,0.00,WeatherDisplay:10.37,2013-05-06 20:25:00,
2013-05-06 15:31:00,63.7,50.4,28.93,NE,45,4.6,4.6,62,0.00,,,0.00,WeatherDisplay:10.37,2013-05-06 20:31:00,
2013-05-06 15:36:00,63.1,50.3,28.93,NE,45,8.1,8.1,63,0.00,,,0.00,WeatherDisplay:10.37,2013-05-06 20:36:00,
2013-05-06 15:41:00,64.2,50.9,28.92,North,0,5.4,5.4,62,0.00,,,0.00,WeatherDisplay:10.37,2013-05-06 20:41:00,
2013-05-06 15:46:00,65.5,52.1,28.92,SW,225,5.8,5.8,62,0.00,,,0.00,WeatherDisplay:10.37,2013-05-06 20:46:00,
2013-05-06 15:52:00,64.6,50.4,28.92,SW,225,3.5,3.5,60,0.00,,,0.00,WeatherDisplay:10.37,2013-05-06 20:52:00,
2013-05-06 15:57:00,66.0,51.3,28.91,NE,45,5.8,5.8,59,0.00,,,0.00,WeatherDisplay:10.37,2013-05-06 20:57:00,
2013-05-06 16:02:00,66.7,52.0,28.91,NE,45,8.1,8.1,59,0.00,,,0.00,WeatherDisplay:10.37,2013-05-06 21:02:00,
2013-05-06 16:07:00,66.0,50.8,28.91,East,90,8.1,8.1,58,0.00,,,0.00,WeatherDisplay:10.37,2013-05-06 21:07:00,
2013-05-06 16:13:00,67.1,52.3,28.91,East,90,3.5,3.5,59,0.00,,,0.00,WeatherDisplay:10.37,2013-05-06 21:13:00,
2013-05-06 16:18:00,66.0,50.3,28.90,ENE,68,5.8,5.8,57,0.00,,,0.00,WeatherDisplay:10.37,2013-05-06 21:18:00,
2013-05-06 16:23:00,66.6,51.8,28.90,NW,315,5.8,5.8,59,0.00,,,0.00,WeatherDisplay:10.37,2013-05-06 21:23:00,
2013-05-06 16:28:00,66.2,50.0,28.90,NE,45,6.9,6.9,56,0.00,,,0.00,WeatherDisplay:10.37,2013-05-06 21:28:00,
2013-05-06 16:34:00,66.2,50.5,28.90,NW,315,4.6,4.6,57,0.00,,,0.00,WeatherDisplay:10.37,2013-05-06 21:34:00,
2013-05-06 16:39:00,67.3,52.0,28.89,North,0,5.8,5.8,58,0.00,,,0.00,WeatherDisplay:10.37,2013-05-06 21:39:00,
2013-05-06 16:44:00,67.8,51.1,28.89,NE,45,3.5,3.5,55,0.00,,,0.00,WeatherDisplay:10.37,2013-05-06 21:44:00,
2013-05-06 16:50:00,68.0,51.7,28.89,NE,45,3.5,3.5,56,0.00,,,0.00,WeatherDisplay:10.37,2013-05-06 21:50:00,
2013-05-06 16:55:00,68.5,50.7,28.89,NNW,338,5.8,5.8,53,0.00,,,0.00,WeatherDisplay:10.37,2013-05-06 21:55:00,
2013-05-06 17:00:00,67.4,50.7,28.89,NNW,330,2.0,7.0,55,0.00,,,0.00,WeatherDisplay:10.37,2013-05-06 22:00:00,
2013-05-06 17:05:00,67.3,50.6,28.88,North,0,3.5,3.5,55,0.00,,,0.00,WeatherDisplay:10.37,2013-05-06 22:05:00,
2013-05-06 17:10:00,70.3,50.8,28.88,NW,315,3.5,3.5,50,0.00,,,0.00,WeatherDisplay:10.37,2013-05-06 22:10:00,
2013-05-06 17:15:00,69.4,51.0,28.88,NW,315,3.5,3.5,52,0.00,,,0.00,WeatherDisplay:10.37,2013-05-06 22:15:00,
2013-05-06 17:21:00,70.2,51.2,28.88,NE,45,3.5,3.5,51,0.00,,,0.00,WeatherDisplay:10.37,2013-05-06 22:21:00,
2013-05-06 17:26:00,71.8,50.5,28.88,South,180,3.5,3.5,47,0.00,,,0.00,WeatherDisplay:10.37,2013-05-06 22:26:00,
2013-05-06 17:31:00,70.5,49.9,28.88,SW,225,5.8,5.8,48,0.00,,,0.00,WeatherDisplay:10.37,2013-05-06 22:31:00,
2013-05-06 17:36:00,69.6,49.6,28.88,North,0,5.8,5.8,49,0.00,,,0.00,WeatherDisplay:10.37,2013-05-06 22:36:00,
2013-05-06 17:41:00,69.8,50.3,28.87,NE,45,3.5,3.5,50,0.00,,,0.00,WeatherDisplay:10.37,2013-05-06 22:41:00,
2013-05-06 17:46:00,71.6,50.3,28.87,SW,225,4.6,4.6,47,0.00,,,0.00,WeatherDisplay:10.37,2013-05-06 22:46:00,
2013-05-06 17:51:00,71.2,50.0,28.88,NE,45,3.5,3.5,47,0.00,,,0.00,WeatherDisplay:10.37,2013-05-06 22:51:00,
2013-05-06 17:57:00,72.5,50.5,28.88,South,180,3.5,3.5,46,0.00,,,0.00,WeatherDisplay:10.37,2013-05-06 22:57:00,
2013-05-06 18:02:00,72.9,50.3,28.88,North,0,5.8,5.8,45,0.00,,,0.00,WeatherDisplay:10.37,2013-05-06 23:02:00,
2013-05-06 18:07:00,70.0,49.4,28.87,NE,45,5.8,5.8,48,0.00,,,0.00,WeatherDisplay:10.37,2013-05-06 23:07:00,
2013-05-06 18:12:00,70.7,50.0,28.87,NW,315,2.2,2.2,48,0.00,,,0.00,WeatherDisplay:10.37,2013-05-06 23:12:00,
2013-05-06 18:17:00,70.5,49.3,28.87,North,0,4.6,4.6,47,0.00,,,0.00,WeatherDisplay:10.37,2013-05-06 23:17:00,
2013-05-06 18:22:00,70.3,49.1,28.87,NE,45,4.6,4.6,47,0.00,,,0.00,WeatherDisplay:10.37,2013-05-06 23:22:00,
2013-05-06 18:28:00,71.6,49.7,28.87,SW,225,1.2,1.2,46,0.00,,,0.00,WeatherDisplay:10.37,2013-05-06 23:28:00,
2013-05-06 18:33:00,72.9,50.3,28.87,SW,225,2.3,2.3,45,0.00,,,0.00,WeatherDisplay:10.37,2013-05-06 23:33:00,
2013-05-06 18:38:00,70.9,49.1,28.87,NE,45,6.9,6.9,46,0.00,,,0.00,WeatherDisplay:10.37,2013-05-06 23:38:00,
2013-05-06 18:43:00,69.1,49.7,28.87,NE,45,5.8,5.8,50,0.00,,,0.00,WeatherDisplay:10.37,2013-05-06 23:43:00,
2013-05-06 18:48:00,69.3,49.3,28.87,NNE,22,2.3,2.3,49,0.00,,,0.00,WeatherDisplay:10.37,2013-05-06 23:48:00,
2013-05-06 18:53:00,69.1,49.1,28.87,North,0,8.1,8.1,49,0.00,,,0.00,WeatherDisplay:10.37,2013-05-06 23:53:00,
2013-05-06 18:59:00,68.5,49.2,28.87,East,90,3.5,3.5,50,0.00,,,0.00,WeatherDisplay:10.37,2013-05-06 23:59:00,
2013-05-06 19:04:00,68.7,49.9,28.87,NE,45,4.6,4.6,51,0.00,,,0.00,WeatherDisplay:10.37,2013-05-07 00:04:00,
2013-05-06 19:09:00,69.4,49.4,28.87,NE,45,3.5,3.5,49,0.00,,,0.00,WeatherDisplay:10.37,2013-05-07 00:09:00,
2013-05-06 19:14:00,69.3,49.3,28.87,NE,45,4.6,4.6,49,0.00,,,0.00,WeatherDisplay:10.37,2013-05-07 00:14:00,
2013-05-06 19:19:00,68.7,49.3,28.87,NE,45,5.8,5.8,50,0.00,,,0.00,WeatherDisplay:10.37,2013-05-07 00:19:00,
2013-05-06 19:25:00,67.8,49.5,28.87,NE,45,4.6,4.6,52,0.00,,,0.00,WeatherDisplay:10.37,2013-05-07 00:25:00,
2013-05-06 19:30:00,68.2,49.4,28.87,NW,315,4.6,4.6,51,0.00,,,0.00,WeatherDisplay:10.37,2013-05-07 00:30:00,
2013-05-06 19:35:00,66.7,48.5,28.87,NE,45,5.8,5.8,52,0.00,,,0.00,WeatherDisplay:10.37,2013-05-07 00:35:00,
2013-05-06 19:40:00,65.3,49.2,28.87,East,90,5.8,5.8,56,0.00,,,0.00,WeatherDisplay:10.37,2013-05-07 00:40:00,
2013-05-06 19:45:00,64.0,48.5,28.87,East,90,5.8,5.8,57,0.00,,,0.00,WeatherDisplay:10.37,2013-05-07 00:45:00,
2013-05-06 19:50:00,63.5,49.4,28.87,NE,45,5.8,5.8,60,0.00,,,0.00,WeatherDisplay:10.37,2013-05-07 00:50:00,
2013-05-06 19:56:00,62.4,48.8,28.87,NE,45,4.6,4.6,61,0.00,,,0.00,WeatherDisplay:10.37,2013-05-07 00:56:00,
2013-05-06 20:01:00,61.5,48.8,28.87,NE,45,3.5,3.5,63,0.00,,,0.00,WeatherDisplay:10.37,2013-05-07 01:01:00,
2013-05-06 20:06:00,61.5,48.8,28.87,NE,45,3.5,3.5,63,0.00,,,0.00,WeatherDisplay:10.37,2013-05-07 01:06:00,
2013-05-06 20:11:00,60.1,48.7,28.87,East,90,4.6,4.6,66,0.00,,,0.00,WeatherDisplay:10.37,2013-05-07 01:11:00,
2013-05-06 20:17:00,59.5,48.6,28.87,East,90,3.5,3.5,67,0.00,,,0.00,WeatherDisplay:10.37,2013-05-07 01:17:00,
2013-05-06 20:22:00,58.8,48.3,28.87,East,90,3.5,3.5,68,0.00,,,0.00,WeatherDisplay:10.37,2013-05-07 01:22:00,
2013-05-06 20:27:00,58.1,47.6,28.87,East,90,3.5,3.5,68,0.00,,,0.00,WeatherDisplay:10.37,2013-05-07 01:27:00,
2013-05-06 20:32:00,57.6,47.5,28.87,East,90,3.5,3.5,69,0.00,,,0.00,WeatherDisplay:10.37,2013-05-07 01:32:00,
2013-05-06 20:37:00,57.6,47.5,28.87,SE,135,3.5,3.5,69,0.00,,,0.00,WeatherDisplay:10.37,2013-05-07 01:37:00,
2013-05-06 20:42:00,57.6,47.5,28.87,East,90,3.5,3.5,69,0.00,,,0.00,WeatherDisplay:10.37,2013-05-07 01:42:00,
2013-05-06 20:48:00,57.4,48.1,28.87,East,90,3.5,3.5,71,0.00,,,0.00,WeatherDisplay:10.37,2013-05-07 01:48:00,
2013-05-06 20:53:00,57.0,47.3,28.87,NE,45,3.5,3.5,70,0.00,,,0.00,WeatherDisplay:10.37,2013-05-07 01:53:00,
2013-05-06 20:58:00,55.6,46.7,28.87,NE,45,4.6,4.6,72,0.00,,,0.00,WeatherDisplay:10.37,2013-05-07 01:58:00,
2013-05-06 21:03:00,55.0,46.9,28.87,NE,45,3.5,3.5,74,0.00,,,0.00,WeatherDisplay:10.37,2013-05-07 02:03:00,
2013-05-06 21:08:00,53.1,45.7,28.87,East,90,3.5,3.5,76,0.00,,,0.00,WeatherDisplay:10.37,2013-05-07 02:08:00,
2013-05-06 21:13:00,52.3,45.3,28.88,SE,135,1.2,0.0,77,0.00,,,0.00,WeatherDisplay:10.37,2013-05-07 02:13:00,
2013-05-06 21:18:00,52.7,46.4,28.88,NE,45,2.3,2.3,79,0.00,,,0.00,WeatherDisplay:10.37,2013-05-07 02:18:00,
2013-05-06 21:23:00,53.8,47.8,28.88,NE,45,3.5,3.5,80,0.00,,,0.00,WeatherDisplay:10.37,2013-05-07 02:23:00,
2013-05-06 21:29:00,54.0,47.3,28.88,NE,45,1.2,0.0,78,0.00,,,0.00,WeatherDisplay:10.37,2013-05-07 02:29:00,
2013-05-06 21:34:00,53.4,46.4,28.89,NE,45,0.0,0.0,77,0.00,,,0.00,WeatherDisplay:10.37,2013-05-07 02:34:00,
2013-05-06 21:39:00,52.5,45.9,28.88,East,90,2.3,2.3,78,0.00,,,0.00,WeatherDisplay:10.37,2013-05-07 02:39:00,
2013-05-06 21:44:00,51.8,45.8,28.88,East,90,3.5,3.5,80,0.00,,,0.00,WeatherDisplay:10.37,2013-05-07 02:44:00,
2013-05-06 21:49:00,51.6,46.6,28.89,East,90,3.5,3.5,83,0.00,,,0.00,WeatherDisplay:10.37,2013-05-07 02:49:00,
2013-05-06 21:54:00,51.3,46.3,28.89,NE,45,3.5,3.5,83,0.00,,,0.00,WeatherDisplay:10.37,2013-05-07 02:54:00,
2013-05-06 22:00:00,50.7,46.1,28.89,NE,45,3.5,3.5,84,0.00,,,0.00,WeatherDisplay:10.37,2013-05-07 03:00:00,
2013-05-06 22:05:00,50.7,46.1,28.89,NE,45,3.5,3.5,84,0.00,,,0.00,WeatherDisplay:10.37,2013-05-07 03:05:00,
2013-05-06 22:10:00,49.5,45.1,28.89,NE,45,2.3,2.3,85,0.00,,,0.00,WeatherDisplay:10.37,2013-05-07 03:10:00,
2013-05-06 22:15:00,49.1,45.1,28.89,NE,45,2.3,2.3,86,0.00,,,0.00,WeatherDisplay:10.37,2013-05-07 03:15:00,
2013-05-06 22:20:00,48.7,45.0,28.89,NE,45,3.5,3.5,87,0.00,,,0.00,WeatherDisplay:10.37,2013-05-07 03:20:00,
2013-05-06 22:25:00,48.7,45.3,28.89,NE,45,2.3,2.3,88,0.00,,,0.00,WeatherDisplay:10.37,2013-05-07 03:25:00,
2013-05-06 22:31:00,48.7,45.3,28.89,NE,45,2.3,2.3,88,0.00,,,0.00,WeatherDisplay:10.37,2013-05-07 03:31:00,
2013-05-06 22:36:00,48.4,45.0,28.89,East,90,2.3,2.3,88,0.00,,,0.00,WeatherDisplay:10.37,2013-05-07 03:36:00,
2013-05-06 22:41:00,47.8,44.5,28.89,East,90,3.5,3.5,88,0.00,,,0.00,WeatherDisplay:10.37,2013-05-07 03:41:00,
2013-05-06 22:46:00,48.0,44.9,28.89,East,90,1.2,1.2,89,0.00,,,0.00,WeatherDisplay:10.37,2013-05-07 03:46:00,
2013-05-06 22:52:00,47.5,44.1,28.89,SW,225,1.2,1.2,88,0.00,,,0.00,WeatherDisplay:10.37,2013-05-07 03:52:00,
2013-05-06 22:57:00,47.5,44.4,28.89,South,180,1.2,1.2,89,0.00,,,0.00,WeatherDisplay:10.37,2013-05-07 03:57:00,
2013-05-06 23:01:00,47.5,44.7,28.89,South,180,1.2,1.2,90,0.00,,,0.00,WeatherDisplay:10.37,2013-05-07 04:01:00,
2013-05-06 23:03:00,47.5,44.7,28.89,South,180,1.2,1.2,90,0.00,,,0.00,WeatherDisplay:10.37,2013-05-07 04:03:00,
2013-05-06 23:08:00,47.5,44.7,28.89,South,180,1.2,0.0,90,0.00,,,0.00,WeatherDisplay:10.37,2013-05-07 04:08:00,
2013-05-06 23:13:00,47.3,44.8,28.89,NE,45,2.3,2.3,91,0.00,,,0.00,WeatherDisplay:10.37,2013-05-07 04:13:00,
2013-05-06 23:18:00,47.5,45.3,28.88,East,90,1.6,0.0,92,0.00,,,0.00,WeatherDisplay:10.37,2013-05-07 04:18:00,
2013-05-06 23:23:00,47.7,45.2,28.88,NE,45,1.2,1.2,91,0.00,,,0.00,WeatherDisplay:10.37,2013-05-07 04:23:00,
2013-05-06 23:28:00,47.3,44.8,28.88,East,90,2.3,2.3,91,0.00,,,0.00,WeatherDisplay:10.37,2013-05-07 04:28:00,
2013-05-06 23:34:00,46.8,44.0,28.89,East,90,1.2,1.2,90,0.00,,,0.00,WeatherDisplay:10.37,2013-05-07 04:34:00,
2013-05-06 23:39:00,46.8,44.3,28.89,South,180,1.2,0.0,91,0.00,,,0.00,WeatherDisplay:10.37,2013-05-07 04:39:00,
2013-05-06 23:44:00,46.6,44.4,28.88,SW,225,2.3,2.3,92,0.00,,,0.00,WeatherDisplay:10.37,2013-05-07 04:44:00,
2013-05-06 23:49:00,46.2,44.0,28.88,SW,225,3.5,3.5,92,0.00,,,0.00,WeatherDisplay:10.37,2013-05-07 04:49:00,
2013-05-06 23:54:00,46.2,44.0,28.88,SW,225,1.2,0.0,92,0.00,,,0.00,WeatherDisplay:10.37,2013-05-07 04:54:00,
2013-05-06 23:59:00,46.2,44.3,28.89,SW,225,3.5,3.5,93,0.00,,,0.00,WeatherDisplay:10.37,2013-05-07 04:59:00,